Location: Columbus
(29.5618°N, 96.6770°W)
Time: 02:14:22
(UTC-05:00)

Iridium 59 - Visible Passes

Search period start: 29 June 2016 00:00
Search period end: 09 July 2016 00:00
Orbit: 776 x 779 km, 86.4° (Epoch: 28 June)

Date Brightness Start Highest point End Pass type
(mag) Time Alt. Az. Time Alt. Az. Time Alt. Az.
29 Jun 7.4 00:51:08 10° NW 00:53:09 16° WNW 00:53:09 16° WNW visible
29 Jun 6.7 22:36:41 10° NE 22:39:22 19° ENE 22:39:22 19° ENE visible
30 Jun 6.6 00:16:29 10° NNW 00:19:50 29° WNW 00:19:50 29° WNW visible
30 Jun 5.7 23:42:32 10° N 23:46:32 51° NNW 23:46:32 51° NNW visible
01 Jul 5.5 23:09:04 10° N 23:13:14 50° NE 23:13:14 50° NE visible
02 Jul 7.7 00:53:11 10° WNW 00:53:43 10° WNW 00:53:43 10° WNW visible
02 Jul 6.1 22:36:06 10° NNE 22:39:57 29° ENE 22:39:57 29° ENE visible
03 Jul 7.0 00:17:08 10° NW 00:20:26 22° WNW 00:20:26 22° WNW visible
03 Jul 6.8 22:03:59 10° NE 22:06:40 15° ENE 22:06:40 15° ENE visible
03 Jul 6.0 23:42:49 10° NNW 23:47:09 42° WNW 23:47:09 42° WNW visible
04 Jul 5.0 23:09:05 10° N 23:13:53 76° N 23:13:53 76° N visible
05 Jul 5.4 22:35:48 10° NNE 22:40:38 45° E 22:40:38 45° E visible
06 Jul 7.4 00:18:15 10° NW 00:21:01 15° W 00:21:07 15° W visible
06 Jul 6.3 22:03:04 10° NNE 22:07:08 23° E 22:07:24 23° E visible
06 Jul 6.5 23:43:18 10° NNW 23:47:44 29° W 23:47:52 29° W visible
07 Jul 7.0 21:32:00 10° ENE 21:33:22 11° ENE 21:34:10 11° E visible
07 Jul 5.3 23:09:16 10° N 23:14:23 59° W 23:14:39 58° WSW visible
08 Jul 4.9 22:35:42 10° N 22:40:54 69° E 22:41:26 64° SE visible
